Tracking 25710 objects as of 7-Jul-2022
HD Live streaming from Space Station
objects crossing your sky now

STARLINK-3508

Track STARLINK-3508 now!
10-day predictions
STARLINK-3508 is classified as:


NORAD ID: 51862
Int'l Code: 2022-022L
Perigee: 545.7 km
Apogee: 548.2 km
Inclination: 53.2 °
Period: 95.4 minutes
Semi major axis: 6917 km
RCS: Unknown
Launch date: March 3, 2022
Source: United States (US)
Launch site: AIR FORCE EASTERN TEST RANGE (AFETR)
aabbcc
Your satellite tracking list
Your tracking list is empty




NASA's NSSDC Master Catalog

Two Line Element Set (TLE):
1 51862U 22022L   22187.66667824  .00047941  00000-0  30123-2 0  9991
2 51862  53.2153 273.6817 0001808  49.6702 124.1679 15.08811132 20565
Source of the keplerian elements: AFSPC